Regional Weather Roundup
Issued by NWS

Home | Current Version | Previous Version | Graphics & Text | Print | Product List | Glossary On
Versions: 1 2 3 4 5 6 7 8 9 10 11 12 13 14 15 16 17 18 19 20 21 22 23 24 25 26 27 28 29 30 31 32 33 34 35 36 37 38 39 40 41 42 43 44 45 46 47 48 49 50
000
ASUS43 KFSD 220310
RWRSD

WEATHER ROUNDUP FOR SOUTH DAKOTA
NATIONAL WEATHER SERVICE SIOUX FALLS SD
1000 PM CDT WED JUN 21 2017

NOTE: "FAIR" INDICATES FEW OR NO CLOUDS BELOW 12,000 FEET WITH NO
SIGNIFICANT WEATHER AND/OR OBSTRUCTIONS TO VISIBILITY.


SDZ001>005-009-010-012>017-220400-
NORTHWEST AND NORTH CENTRAL SOUTH DAKOTA

CITY           SKY/WX    TMP DP  RH WIND       PRES   REMARKS
BUFFALO          N/A     74  42  31 NE10      29.73S
FAITH            N/A     72  50  45 NE14      29.75S
MOBRIDGE       CLEAR     73  51  46 N10       29.71R
$$

SDZ012>016-024>037-041>051-057-063-072>074-220400-
SOUTHWEST AND SOUTH CENTRAL SOUTH DAKOTA

CITY           SKY/WX    TMP DP  RH WIND       PRES   REMARKS
RAPID CTY ARPT CLEAR     74  49  41 N12       29.76R
PIERRE         CLEAR     77  55  46 NE20G26   29.67R
CUSTER         CLOUDY    69  46  43 E12       29.92S
ELLSWORTH AFB  CLEAR     80  48  32 NE10      29.77R
PHILIP         CLEAR     80  52  37 NE14      29.69R
PINE RIDGE     CLEAR     73  64  73 NE7       29.74S
SPEARFISH      FAIR      70  50  49 CALM      29.84R
WINNER         FAIR      79  65  62 E7        29.68R
$$

SDZ004>011-016>023-039-040-220400-
NORTHEAST SOUTH DAKOTA

CITY           SKY/WX    TMP DP  RH WIND       PRES   REMARKS
ABERDEEN       CLOUDY    74  62  66 NE9       29.70R
WATERTOWN      CLOUDY    71  67  87 N6        29.71R
BROOKINGS      CLEAR     75  68  78 N5        29.71R
SISSETON         N/A     74  67  78 NW10      29.68R
$$

SDZ017-020-022-023-036>040-048>070-220400-
SOUTHEAST SOUTH DAKOTA

CITY           SKY/WX    TMP DP  RH WIND       PRES   REMARKS
SIOUX FALLS    PTCLDY    77  71  82 E5        29.65S
HURON          CLEAR     77  68  73 SE3       29.66R
CHAMBERLAIN    CLEAR     82  69  62 NE3       29.67R
MITCHELL       CLEAR     78  69  73 CALM      29.65R
YANKTON        CLEAR     81  70  69 N7        29.63S
$$

ABBREVIATIONS USED IN REMARKS
   TC - TEMPERATURE IN CELSIUS
  WCI - WIND CHILL INDEX
   HX - HEAT INDEX
  VSB - VISIBILITY





USA.gov is the U.S. government's official web portal to all federal, state and local government web resources and services.